Change the Weather History Date:

Tuesday, November 18, 2014

  Actual Average Record
Temperature  
Mean Temperature 17 °F 42 °F  
Max Temperature 20 °F 52 °F 65 °F (1975)
Min Temperature 14 °F 33 °F 14 °F (2014)
Degree Days  
Heating Degree Days 48 23  
Month to date heating degree days 451 358  
Since 1 July heating degree days 898 857  
Cooling Degree Days 0 0  
Month to date cooling degree days 0 0  
Year to date cooling degree days 630 697  
Moisture  
Dew Point 7 °F    
Average Humidity 68    
Maximum Humidity 80    
Minimum Humidity 56    
Precipitation  
Precipitation T in 0.13 in 1.96 in (1993)
Month to date precipitation 1.29 1.86  
Year to date precipitation 36.61 34.82  
Sea Level Pressure  
Sea Level Pressure 30.14 in    
Wind  
Wind Speed 11 mph (WSW)    
Max Wind Speed 21 mph    
Max Gust Speed 30 mph    
Visibility 6 miles    
Events Snow    
T = Trace of Precipitation, MM = Missing Value Source: NWS Daily Summary

Daily Weather History Graph

Daily Weather History Graph

Search for Another Location

Airport or City:

Trip Planner

Search our weather history database for the weather conditions in past years. The results will help you decide how hot, cold, wet, or windy it might be!

Date:

Astronomy

Nov. 18, 2014 Rise Set
Actual Time 7:15 AM EST 5:05 PM EST
Civil Twilight 6:45 AM EST 5:35 PM EST
Nautical Twilight 6:12 AM EST 6:08 PM EST
Astronomical Twilight 5:40 AM EST 6:40 PM EST
Moon 3:11 AM EST (11/18) 3:00 PM EST (11/18)
Length of Visible Light 10h 49m
Length of Day
9h 50m
Waning Crescent, 15% of the Moon is Illuminated
Nov 18
Waning Crescent
Nov 22
New
Nov 29
First Quarter
Dec 6
Full
Dec 14
Last Quarter

Hourly Weather History & Observations

Time (EST) Temp. Windchill Dew Point Humidity Pressure Visibility Wind Dir Wind Speed Gust Speed Precip Events Conditions
12:53 AM 17.1 °F 3.0 °F 6.1 °F 62% 30.00 in 8.0 mi WSW 13.8 mph 24.2 mph 0.00 in   Mostly Cloudy
1:53 AM 17.1 °F 2.0 °F 6.1 °F 62% 30.01 in 8.0 mi WSW 16.1 mph 26.5 mph 0.00 in   Overcast
2:53 AM 16.0 °F 2.9 °F 3.9 °F 59% 30.01 in 10.0 mi WSW 11.5 mph 26.5 mph N/A   Overcast
3:53 AM 16.0 °F 4.4 °F 6.1 °F 65% 30.02 in 10.0 mi WSW 9.2 mph 20.7 mph N/A   Overcast
4:53 AM 15.1 °F 3.3 °F 3.9 °F 61% 30.03 in 10.0 mi West 9.2 mph 26.5 mph N/A   Mostly Cloudy
5:53 AM 15.1 °F 0.5 °F 5.0 °F 64% 30.04 in 10.0 mi WSW 13.8 mph 23.0 mph 0.00 in   Overcast
6:53 AM 14.0 °F 2.9 °F 6.1 °F 71% 30.06 in 4.0 mi WSW 8.1 mph - 0.00 in Snow Light Snow
7:21 AM 14.0 °F 2.9 °F 6.1 °F 71% 30.02 in 4.0 mi WSW 8.1 mph - 0.00 in Snow Light Snow
7:53 AM 14.0 °F -0.8 °F 5.0 °F 67% 30.09 in 6.0 mi West 13.8 mph 24.2 mph 0.00 in   Haze
8:25 AM 14.0 °F 1.2 °F 5.0 °F 67% 30.06 in 3.0 mi West 10.4 mph 23.0 mph 0.00 in Snow Light Snow
8:53 AM 14.0 °F 1.2 °F 6.1 °F 71% 30.12 in 1.8 mi West 10.4 mph 20.7 mph 0.00 in Snow Light Snow
9:03 AM 14.0 °F 2.0 °F 7.0 °F 74% 30.07 in 0.8 mi WSW 9.2 mph - 0.00 in Snow Light Snow
9:14 AM 15.1 °F 1.1 °F 7.0 °F 70% 30.08 in 1.2 mi SW 12.7 mph 19.6 mph 0.00 in Snow Light Snow
9:20 AM 15.1 °F 0.5 °F 6.1 °F 68% 30.08 in 3.0 mi SW 13.8 mph 19.6 mph 0.00 in Snow Light Snow
9:32 AM 15.1 °F 2.5 °F 6.1 °F 68% 30.09 in 2.0 mi WSW 10.4 mph 19.6 mph 0.00 in Snow Light Snow
9:41 AM 15.1 °F -1.6 °F 3.9 °F 61% 30.09 in 1.8 mi WSW 18.4 mph 29.9 mph 0.00 in   Overcast
9:45 AM 15.1 °F 1.1 °F 5.0 °F 64% 30.09 in 3.0 mi West 12.7 mph 29.9 mph 0.00 in   Overcast
9:53 AM 15.1 °F 0.5 °F 5.0 °F 64% 30.13 in 9.0 mi WSW 13.8 mph 21.9 mph 0.00 in   Overcast
10:22 AM 16.0 °F 1.7 °F 6.1 °F 65% 30.10 in 8.0 mi West 13.8 mph 21.9 mph N/A   Overcast
10:53 AM 14.0 °F 0.5 °F 5.0 °F 67% 30.17 in 9.0 mi West 11.5 mph - 0.00 in   Mostly Cloudy
11:24 AM 17.1 °F 2.5 °F 5.0 °F 59% 30.11 in 10.0 mi WSW 15.0 mph 23.0 mph N/A   Mostly Cloudy
11:38 AM 17.1 °F 3.0 °F 5.0 °F 59% 30.11 in 10.0 mi WSW 13.8 mph 23.0 mph N/A   Scattered Clouds
11:53 AM 16.0 °F 2.9 °F 3.9 °F 59% 30.15 in 10.0 mi WSW 11.5 mph 21.9 mph N/A   Scattered Clouds
12:53 PM 18.0 °F 4.2 °F 5.0 °F 57% 30.14 in 10.0 mi WSW 13.8 mph 23.0 mph N/A   Partly Cloudy
1:53 PM 19.0 °F 6.1 °F 6.1 °F 57% 30.14 in 10.0 mi SW 12.7 mph 23.0 mph N/A   Mostly Cloudy
2:53 PM 19.9 °F 7.9 °F 7.0 °F 57% 30.14 in 10.0 mi SW 11.5 mph 19.6 mph N/A   Scattered Clouds
3:53 PM 19.0 °F 6.8 °F 6.1 °F 57% 30.15 in 10.0 mi WSW 11.5 mph 24.2 mph N/A   Overcast
4:53 PM 19.0 °F 8.2 °F 7.0 °F 59% 30.17 in 10.0 mi SW 9.2 mph 17.3 mph N/A   Overcast
5:53 PM 18.0 °F 6.1 °F 10.0 °F 71% 30.20 in 3.0 mi WSW 10.4 mph - 0.00 in Snow Light Snow
6:02 PM 18.0 °F 7.7 °F 10.0 °F 71% 30.16 in 2.5 mi SW 8.1 mph - 0.00 in Snow Light Snow
6:11 PM 18.0 °F 7.7 °F 9.0 °F 68% 30.16 in 5.0 mi SW 8.1 mph 16.1 mph 0.00 in Snow Light Snow
6:34 PM 18.0 °F 5.4 °F 10.0 °F 71% 30.17 in 1.8 mi WSW 11.5 mph - 0.00 in Snow Light Snow
6:49 PM 17.6 °F 8.2 °F 10.4 °F 73% 30.17 in 3.0 mi SW 6.9 mph - 0.00 in Snow Light Snow
6:53 PM 17.1 °F 5.8 °F 10.0 °F 74% 30.22 in 3.0 mi WSW 9.2 mph - 0.00 in Snow Light Snow
7:36 PM 17.1 °F 7.6 °F 10.9 °F 77% 30.18 in 2.0 mi WSW 6.9 mph - 0.00 in Snow Light Snow
7:53 PM 17.1 °F 8.7 °F 12.0 °F 81% 30.24 in 1.2 mi WNW 5.8 mph - 0.00 in Snow Light Snow
7:57 PM 17.1 °F 7.6 °F 12.9 °F 84% 30.19 in 1.0 mi WNW 6.9 mph - 0.00 in Snow Light Snow
8:04 PM 17.1 °F 10.0 °F 12.9 °F 84% 30.19 in 0.8 mi Variable 4.6 mph - 0.00 in Snow Light Snow
8:12 PM 17.1 °F 8.7 °F 12.9 °F 84% 30.19 in 1.2 mi West 5.8 mph - 0.00 in Snow Light Snow
8:16 PM 17.1 °F 8.7 °F 12.9 °F 84% 30.19 in 2.0 mi West 5.8 mph - 0.00 in Snow Light Snow
8:29 PM 17.1 °F 8.7 °F 12.0 °F 81% 30.20 in 4.0 mi Variable 5.8 mph - 0.00 in Snow Light Snow
8:53 PM 17.1 °F 5.8 °F 8.1 °F 68% 30.26 in 10.0 mi West 9.2 mph 21.9 mph 0.00 in   Mostly Cloudy
9:53 PM 17.1 °F 5.8 °F 7.0 °F 65% 30.27 in 10.0 mi West 9.2 mph 16.1 mph N/A   Mostly Cloudy
10:06 PM 16.0 °F 8.8 °F 7.0 °F 68% 30.23 in 10.0 mi West 4.6 mph - N/A   Mostly Cloudy
10:26 PM 15.1 °F 7.7 °F 7.0 °F 70% 30.23 in 10.0 mi West 4.6 mph - N/A   Scattered Clouds
10:53 PM 15.1 °F 5.2 °F 7.0 °F 70% 30.29 in 10.0 mi West 6.9 mph - N/A   Clear
11:53 PM 15.1 °F 6.4 °F 6.1 °F 68% 30.29 in 10.0 mi West 5.8 mph - N/A   Mostly Cloudy